owner,sensor,date,latitude,longitude,vertical_datum,wind_speed,wind_to_direction,wind_speed_of_gust,qcFlag 
TCOON,ioos:station:TCOON:031:1,2008-03-01T00:00:00Z,28.4073,-96.7122,0.0,4.2,109.0,6.6,'11111222,11111222,11111222' 
TCOON,ioos:station:TCOON:031:1,2008-03-01T01:00:00Z,28.4073,-96.7122,0.0,3.7,94.0,4.4,'11111222,11111222,11111222' 
TCOON,ioos:station:TCOON:031:1,2008-03-01T03:00:00Z,28.4073,-96.7122,0.0,0.9,45.0,2.8,'11111222,11111222,11111222' 
TCOON,ioos:station:TCOON:031:1,2008-03-01T04:00:00Z,28.4073,-96.7122,0.0,2.4,62.0,3.8,'11111222,11111222,11111222' 
TCOON,ioos:station:TCOON:031:1,2008-03-01T05:00:00Z,28.4073,-96.7122,0.0,2.0,77.0,3.3,'11111222,11111222,11111222' 
TCOON,ioos:station:TCOON:031:1,2008-03-01T06:00:00Z,28.4073,-96.7122,0.0,3.1,84.0,4.2,'11111222,11111222,11111222' 
TCOON,ioos:station:TCOON:031:1,2008-03-01T07:00:00Z,28.4073,-96.7122,0.0,3.0,92.0,3.5,'11111222,11111222,11111222' 
TCOON,ioos:station:TCOON:031:1,2008-03-01T08:00:00Z,28.4073,-96.7122,0.0,2.7,88.0,3.3,'11111222,11111222,11111222' 
TCOON,ioos:station:TCOON:031:1,2008-03-01T09:00:00Z,28.4073,-96.7122,0.0,2.4,92.0,3.4,'11111222,11111222,11111222' 
TCOON,ioos:station:TCOON:031:1,2008-03-01T10:00:00Z,28.4073,-96.7122,0.0,1.2,80.0,2.4,'11111222,11111222,11111222' 
TCOON,ioos:station:TCOON:031:1,2008-03-01T11:00:00Z,28.4073,-96.7122,0.0,2.1,50.0,3.0,'11111222,11111222,11111222' 
TCOON,ioos:station:TCOON:031:1,2008-03-01T12:00:00Z,28.4073,-96.7122,0.0,2.9,40.0,4.2,'11111222,11111222,11111222' 
TCOON,ioos:station:TCOON:031:1,2008-03-01T13:00:00Z,28.4073,-96.7122,0.0,2.8,68.0,4.3,'11111222,11111222,11111222' 
TCOON,ioos:station:TCOON:031:1,2008-03-01T14:00:00Z,28.4073,-96.7122,0.0,2.9,66.0,4.2,'11111222,11111222,11111222' 
TCOON,ioos:station:TCOON:031:1,2008-03-01T15:00:00Z,28.4073,-96.7122,0.0,5.0,87.0,5.9,'11111222,11111222,11111222' 
TCOON,ioos:station:TCOON:031:1,2008-03-01T16:00:00Z,28.4073,-96.7122,0.0,3.0,97.0,5.4,'11111222,11111222,11111222' 
TCOON,ioos:station:TCOON:031:1,2008-03-01T17:00:00Z,28.4073,-96.7122,0.0,4.8,115.0,6.4,'11111222,11111222,11111222' 
TCOON,ioos:station:TCOON:031:1,2008-03-01T18:00:00Z,28.4073,-96.7122,0.0,5.3,142.0,6.8,'11111222,11111222,11111222' 
TCOON,ioos:station:TCOON:031:1,2008-03-01T19:00:00Z,28.4073,-96.7122,0.0,6.8,161.0,7.3,'11111222,11111222,11111222' 
TCOON,ioos:station:TCOON:031:1,2008-03-01T20:00:00Z,28.4073,-96.7122,0.0,5.9,118.0,7.8,'11111222,11111222,11111222' 
TCOON,ioos:station:TCOON:031:1,2008-03-01T21:00:00Z,28.4073,-96.7122,0.0,6.4,125.0,7.7,'11111222,11111222,11111222' 
TCOON,ioos:station:TCOON:031:1,2008-03-01T22:00:00Z,28.4073,-96.7122,0.0,6.0,119.0,7.7,'11111222,11111222,11111222' 
TCOON,ioos:station:TCOON:031:1,2008-03-01T23:00:00Z,28.4073,-96.7122,0.0,6.3,104.0,7.5,'11111222,11111222,11111222' 
TCOON,ioos:station:TCOON:031:1,2008-03-02T00:00:00Z,28.4073,-96.7122,0.0,3.9,110.0,6.9,'11111222,11111222,11111222' 
TCOON,ioos:station:TCOON:031:1,2008-03-02T01:00:00Z,28.4073,-96.7122,0.0,4.0,106.0,4.9,'11111222,11111222,11111222' 
TCOON,ioos:station:TCOON:031:1,2008-03-02T02:00:00Z,28.4073,-96.7122,0.0,4.7,109.0,6.1,'11111222,11111222,11111222' 
TCOON,ioos:station:TCOON:031:1,2008-03-02T03:00:00Z,28.4073,-96.7122,0.0,5.2,115.0,6.9,'11111222,11111222,11111222' 
TCOON,ioos:station:TCOON:031:1,2008-03-02T04:00:00Z,28.4073,-96.7122,0.0,5.2,119.0,6.4,'11111222,11111222,11111222' 
TCOON,ioos:station:TCOON:031:1,2008-03-02T05:00:00Z,28.4073,-96.7122,0.0,4.9,116.0,6.5,'11111222,11111222,11111222' 
TCOON,ioos:station:TCOON:031:1,2008-03-02T06:00:00Z,28.4073,-96.7122,0.0,4.4,117.0,5.7,'11111222,11111222,11111222' 
TCOON,ioos:station:TCOON:031:1,2008-03-02T07:00:00Z,28.4073,-96.7122,0.0,4.1,113.0,5.1,'11111222,11111222,11111222' 
TCOON,ioos:station:TCOON:031:1,2008-03-02T08:00:00Z,28.4073,-96.7122,0.0,4.9,123.0,5.8,'11111222,11111222,11111222' 
TCOON,ioos:station:TCOON:031:1,2008-03-02T09:00:00Z,28.4073,-96.7122,0.0,4.4,119.0,5.8,'11111222,11111222,11111222' 
TCOON,ioos:station:TCOON:031:1,2008-03-02T10:00:00Z,28.4073,-96.7122,0.0,4.1,126.0,5.0,'11111222,11111222,11111222' 
TCOON,ioos:station:TCOON:031:1,2008-03-02T11:00:00Z,28.4073,-96.7122,0.0,4.1,130.0,4.9,'11111222,11111222,11111222' 
TCOON,ioos:station:TCOON:031:1,2008-03-02T12:00:00Z,28.4073,-96.7122,0.0,4.5,133.0,5.6,'11111222,11111222,11111222' 
TCOON,ioos:station:TCOON:031:1,2008-03-02T13:00:00Z,28.4073,-96.7122,0.0,4.5,120.0,5.2,'11111222,11111222,11111222' 
TCOON,ioos:station:TCOON:031:1,2008-03-02T14:00:00Z,28.4073,-96.7122,0.0,4.6,122.0,6.1,'11111222,11111222,11111222' 
TCOON,ioos:station:TCOON:031:1,2008-03-02T15:00:00Z,28.4073,-96.7122,0.0,4.8,127.0,6.6,'11111222,11111222,11111222' 
TCOON,ioos:station:TCOON:031:1,2008-03-02T16:00:00Z,28.4073,-96.7122,0.0,8.1,131.0,10.3,'11111222,11111222,11111222' 
TCOON,ioos:station:TCOON:031:1,2008-03-02T17:00:00Z,28.4073,-96.7122,0.0,6.8,125.0,9.3,'11111222,11111222,11111222' 
TCOON,ioos:station:TCOON:031:1,2008-03-02T18:00:00Z,28.4073,-96.7122,0.0,9.2,130.0,14.7,'11111222,11111222,11111222' 
TCOON,ioos:station:TCOON:031:1,2008-03-02T19:00:00Z,28.4073,-96.7122,0.0,12.6,133.0,14.9,'11111222,11111222,11111222' 
TCOON,ioos:station:TCOON:031:1,2008-03-02T20:00:00Z,28.4073,-96.7122,0.0,11.6,132.0,14.7,'11111222,11111222,11111222' 
TCOON,ioos:station:TCOON:031:1,2008-03-02T21:00:00Z,28.4073,-96.7122,0.0,11.2,129.0,13.7,'11111222,11111222,11111222' 
TCOON,ioos:station:TCOON:031:1,2008-03-02T22:00:00Z,28.4073,-96.7122,0.0,10.7,130.0,14.0,'11111222,11111222,11111222' 
TCOON,ioos:station:TCOON:031:1,2008-03-02T23:00:00Z,28.4073,-96.7122,0.0,6.7,118.0,10.2,'11111222,11111222,11111222' 
TCOON,ioos:station:TCOON:031:1,2008-03-03T00:00:00Z,28.4073,-96.7122,0.0,8.6,124.0,12.3,'11111222,11111222,11111222' 
TCOON,ioos:station:TCOON:031:1,2008-03-03T01:00:00Z,28.4073,-96.7122,0.0,7.4,124.0,10.0,'11111222,11111222,11111222' 
TCOON,ioos:station:TCOON:031:1,2008-03-03T02:00:00Z,28.4073,-96.7122,0.0,8.1,122.0,12.0,'11111222,11111222,11111222' 
TCOON,ioos:station:TCOON:031:1,2008-03-03T03:00:00Z,28.4073,-96.7122,0.0,10.1,121.0,13.1,'11111222,11111222,11111222' 
TCOON,ioos:station:TCOON:031:1,2008-03-03T04:00:00Z,28.4073,-96.7122,0.0,8.8,124.0,11.2,'11111222,11111222,11111222' 
TCOON,ioos:station:TCOON:031:1,2008-03-03T05:00:00Z,28.4073,-96.7122,0.0,5.9,121.0,8.8,'11111222,11111222,11111222' 
TCOON,ioos:station:TCOON:031:1,2008-03-03T06:00:00Z,28.4073,-96.7122,0.0,6.6,124.0,8.4,'11111222,11111222,11111222' 
TCOON,ioos:station:TCOON:031:1,2008-03-03T07:00:00Z,28.4073,-96.7122,0.0,5.7,125.0,7.3,'11111222,11111222,11111222' 
TCOON,ioos:station:TCOON:031:1,2008-03-03T08:00:00Z,28.4073,-96.7122,0.0,6.8,127.0,9.3,'11111222,11111222,11111222' 
TCOON,ioos:station:TCOON:031:1,2008-03-03T09:00:00Z,28.4073,-96.7122,0.0,7.9,126.0,9.8,'11111222,11111222,11111222' 
TCOON,ioos:station:TCOON:031:1,2008-03-03T10:00:00Z,28.4073,-96.7122,0.0,9.3,131.0,11.2,'11111222,11111222,11111222' 
TCOON,ioos:station:TCOON:031:1,2008-03-03T11:00:00Z,28.4073,-96.7122,0.0,8.6,131.0,11.8,'11111222,11111222,11111222' 
TCOON,ioos:station:TCOON:031:1,2008-03-03T12:00:00Z,28.4073,-96.7122,0.0,6.9,140.0,10.0,'11111222,11111222,11111222' 
TCOON,ioos:station:TCOON:031:1,2008-03-03T13:00:00Z,28.4073,-96.7122,0.0,9.8,151.0,12.0,'11111222,11111222,11111222' 
TCOON,ioos:station:TCOON:031:1,2008-03-03T14:00:00Z,28.4073,-96.7122,0.0,8.5,154.0,9.6,'11111222,11111222,11111222' 
TCOON,ioos:station:TCOON:031:1,2008-03-03T15:00:00Z,28.4073,-96.7122,0.0,9.5,166.0,10.6,'11111222,11111222,11111222' 
TCOON,ioos:station:TCOON:031:1,2008-03-03T16:00:00Z,28.4073,-96.7122,0.0,9.4,185.0,11.3,'11111222,11111222,11111222' 
TCOON,ioos:station:TCOON:031:1,2008-03-03T17:00:00Z,28.4073,-96.7122,0.0,9.3,189.0,10.7,'11111222,11111222,11111222' 
TCOON,ioos:station:TCOON:031:1,2008-03-03T18:00:00Z,28.4073,-96.7122,0.0,6.5,320.0,11.5,'11111222,11111222,11111222' 
TCOON,ioos:station:TCOON:031:1,2008-03-03T19:00:00Z,28.4073,-96.7122,0.0,9.9,320.0,13.6,'11111222,11111222,11111222' 
TCOON,ioos:station:TCOON:031:1,2008-03-03T20:00:00Z,28.4073,-96.7122,0.0,9.0,323.0,13.3,'11111222,11111222,11111222' 
TCOON,ioos:station:TCOON:031:1,2008-03-03T21:00:00Z,28.4073,-96.7122,0.0,8.3,316.0,13.4,'11111222,11111222,11111222' 
TCOON,ioos:station:TCOON:031:1,2008-03-03T22:00:00Z,28.4073,-96.7122,0.0,8.8,320.0,15.5,'11111222,11111222,11111222' 
TCOON,ioos:station:TCOON:031:1,2008-03-03T23:00:00Z,28.4073,-96.7122,0.0,8.1,311.0,13.5,'11111222,11111222,11111222' 
TCOON,ioos:station:TCOON:031:1,2008-03-04T00:00:00Z,28.4073,-96.7122,0.0,10.2,309.0,14.0,'11111222,11111222,11111222' 
TCOON,ioos:station:TCOON:031:1,2008-03-04T01:00:00Z,28.4073,-96.7122,0.0,7.3,322.0,12.6,'11111222,11111222,11111222' 
TCOON,ioos:station:TCOON:031:1,2008-03-04T02:00:00Z,28.4073,-96.7122,0.0,4.4,330.0,6.8,'11111222,11111222,11111222' 
TCOON,ioos:station:TCOON:031:1,2008-03-04T03:00:00Z,28.4073,-96.7122,0.0,6.0,314.0,14.2,'11111222,11111222,11111222' 
TCOON,ioos:station:TCOON:031:1,2008-03-04T04:00:00Z,28.4073,-96.7122,0.0,7.6,313.0,10.3,'11111222,11111222,11111222' 
TCOON,ioos:station:TCOON:031:1,2008-03-04T05:00:00Z,28.4073,-96.7122,0.0,8.2,307.0,11.4,'11111222,11111222,11111222' 
TCOON,ioos:station:TCOON:031:1,2008-03-04T06:00:00Z,28.4073,-96.7122,0.0,7.2,301.0,11.4,'11111222,11111222,11111222' 
TCOON,ioos:station:TCOON:031:1,2008-03-04T07:00:00Z,28.4073,-96.7122,0.0,5.8,302.0,10.3,'11111222,11111222,11111222' 
TCOON,ioos:station:TCOON:031:1,2008-03-04T08:00:00Z,28.4073,-96.7122,0.0,3.8,270.0,5.0,'11111222,11111222,11111222' 
TCOON,ioos:station:TCOON:031:1,2008-03-04T09:00:00Z,28.4073,-96.7122,0.0,4.6,270.0,5.5,'11111222,11111222,11111222' 
TCOON,ioos:station:TCOON:031:1,2008-03-04T10:00:00Z,28.4073,-96.7122,0.0,7.6,250.0,9.2,'11111222,11111222,11111222' 
TCOON,ioos:station:TCOON:031:1,2008-03-04T11:00:00Z,28.4073,-96.7122,0.0,6.7,271.0,9.0,'11111222,11111222,11111222' 
TCOON,ioos:station:TCOON:031:1,2008-03-04T12:00:00Z,28.4073,-96.7122,0.0,7.4,250.0,8.4,'11111222,11111222,11111222' 
TCOON,ioos:station:TCOON:031:1,2008-03-04T13:00:00Z,28.4073,-96.7122,0.0,5.8,266.0,7.2,'11111222,11111222,11111222' 
TCOON,ioos:station:TCOON:031:1,2008-03-04T14:00:00Z,28.4073,-96.7122,0.0,6.1,266.0,7.5,'11111222,11111222,11111222' 
TCOON,ioos:station:TCOON:031:1,2008-03-04T15:00:00Z,28.4073,-96.7122,0.0,5.9,278.0,7.0,'11111222,11111222,11111222' 
TCOON,ioos:station:TCOON:031:1,2008-03-04T16:00:00Z,28.4073,-96.7122,0.0,5.7,290.0,8.9,'11111222,11111222,11111222' 
TCOON,ioos:station:TCOON:031:1,2008-03-04T17:00:00Z,28.4073,-96.7122,0.0,5.6,279.0,8.0,'11111222,11111222,11111222' 
TCOON,ioos:station:TCOON:031:1,2008-03-04T18:00:00Z,28.4073,-96.7122,0.0,4.9,294.0,7.7,'11111222,11111222,11111222' 
TCOON,ioos:station:TCOON:031:1,2008-03-04T19:00:00Z,28.4073,-96.7122,0.0,2.5,280.0,6.5,'11111222,11111222,11111222' 
TCOON,ioos:station:TCOON:031:1,2008-03-04T20:00:00Z,28.4073,-96.7122,0.0,4.6,299.0,6.7,'11111222,11111222,11111222' 
TCOON,ioos:station:TCOON:031:1,2008-03-04T21:00:00Z,28.4073,-96.7122,0.0,3.0,306.0,5.5,'11111222,11111222,11111222' 
TCOON,ioos:station:TCOON:031:1,2008-03-04T22:00:00Z,28.4073,-96.7122,0.0,2.6,195.0,2.9,'11111222,11111222,11111222' 
TCOON,ioos:station:TCOON:031:1,2008-03-04T23:00:00Z,28.4073,-96.7122,0.0,3.5,172.0,4.9,'11111222,11111222,11111222' 
TCOON,ioos:station:TCOON:031:1,2008-03-05T00:00:00Z,28.4073,-96.7122,0.0,3.8,122.0,4.7,'11111222,11111222,11111222' 
TCOON,ioos:station:TCOON:031:1,2008-03-05T01:00:00Z,28.4073,-96.7122,0.0,3.7,119.0,5.2,'11111222,11111222,11111222' 
TCOON,ioos:station:TCOON:031:1,2008-03-05T02:00:00Z,28.4073,-96.7122,0.0,3.3,133.0,3.9,'11111222,11111222,11111222' 
TCOON,ioos:station:TCOON:031:1,2008-03-05T03:00:00Z,28.4073,-96.7122,0.0,5.4,145.0,6.8,'11111222,11111222,11111222' 
TCOON,ioos:station:TCOON:031:1,2008-03-05T04:00:00Z,28.4073,-96.7122,0.0,6.0,149.0,6.9,'11111222,11111222,11111222' 
TCOON,ioos:station:TCOON:031:1,2008-03-05T05:00:00Z,28.4073,-96.7122,0.0,6.5,154.0,7.8,'11111222,11111222,11111222' 
TCOON,ioos:station:TCOON:031:1,2008-03-05T06:00:00Z,28.4073,-96.7122,0.0,6.2,160.0,7.7,'11111222,11111222,11111222' 
TCOON,ioos:station:TCOON:031:1,2008-03-05T07:00:00Z,28.4073,-96.7122,0.0,7.2,179.0,8.1,'11111222,11111222,11111222' 
TCOON,ioos:station:TCOON:031:1,2008-03-05T08:00:00Z,28.4073,-96.7122,0.0,7.6,184.0,8.1,'11111222,11111222,11111222' 
TCOON,ioos:station:TCOON:031:1,2008-03-05T09:00:00Z,28.4073,-96.7122,0.0,6.5,178.0,8.3,'11111222,11111222,11111222' 
TCOON,ioos:station:TCOON:031:1,2008-03-05T10:00:00Z,28.4073,-96.7122,0.0,6.6,183.0,7.0,'11111222,11111222,11111222' 
TCOON,ioos:station:TCOON:031:1,2008-03-05T11:00:00Z,28.4073,-96.7122,0.0,3.8,201.0,4.4,'11111222,11111222,11111222' 
TCOON,ioos:station:TCOON:031:1,2008-03-05T12:00:00Z,28.4073,-96.7122,0.0,0.1,309.0,2.1,'11111222,11111222,11111222' 
TCOON,ioos:station:TCOON:031:1,2008-03-05T13:00:00Z,28.4073,-96.7122,0.0,2.2,6.0,2.4,'11111222,11111222,11111222' 
TCOON,ioos:station:TCOON:031:1,2008-03-05T14:00:00Z,28.4073,-96.7122,0.0,1.2,6.0,2.8,'11111222,11111222,11111222' 
TCOON,ioos:station:TCOON:031:1,2008-03-05T15:00:00Z,28.4073,-96.7122,0.0,0.0,129.0,1.6,'11111222,11111222,11111222' 
TCOON,ioos:station:TCOON:031:1,2008-03-05T16:00:00Z,28.4073,-96.7122,0.0,4.4,167.0,4.8,'11111222,11111222,11111222' 
TCOON,ioos:station:TCOON:031:1,2008-03-05T17:00:00Z,28.4073,-96.7122,0.0,5.3,165.0,6.0,'11111222,11111222,11111222' 
TCOON,ioos:station:TCOON:031:1,2008-03-05T18:00:00Z,28.4073,-96.7122,0.0,5.0,164.0,5.6,'11111222,11111222,11111222' 
TCOON,ioos:station:TCOON:031:1,2008-03-05T19:00:00Z,28.4073,-96.7122,0.0,5.2,163.0,6.3,'11111222,11111222,11111222' 
TCOON,ioos:station:TCOON:031:1,2008-03-05T20:00:00Z,28.4073,-96.7122,0.0,6.7,163.0,9.3,'11111222,11111222,11111222' 
TCOON,ioos:station:TCOON:031:1,2008-03-05T21:00:00Z,28.4073,-96.7122,0.0,6.5,126.0,10.5,'11111222,11111222,11111222' 
TCOON,ioos:station:TCOON:031:1,2008-03-05T22:00:00Z,28.4073,-96.7122,0.0,6.5,124.0,8.5,'11111222,11111222,11111222' 
TCOON,ioos:station:TCOON:031:1,2008-03-05T23:00:00Z,28.4073,-96.7122,0.0,6.8,116.0,8.3,'11111222,11111222,11111222' 
TCOON,ioos:station:TCOON:031:1,2008-03-06T00:00:00Z,28.4073,-96.7122,0.0,5.6,103.0,8.0,'11111222,11111222,11111222' 
TCOON,ioos:station:TCOON:031:1,2008-03-06T01:00:00Z,28.4073,-96.7122,0.0,2.9,85.0,4.8,'11111222,11111222,11111222' 
TCOON,ioos:station:TCOON:031:1,2008-03-06T03:00:00Z,28.4073,-96.7122,0.0,2.0,82.0,3.1,'11111222,11111222,11111222' 
TCOON,ioos:station:TCOON:031:1,2008-03-06T04:00:00Z,28.4073,-96.7122,0.0,2.3,85.0,3.3,'11111222,11111222,11111222' 
TCOON,ioos:station:TCOON:031:1,2008-03-06T05:00:00Z,28.4073,-96.7122,0.0,1.9,76.0,3.2,'11111222,11111222,11111222' 
TCOON,ioos:station:TCOON:031:1,2008-03-06T06:00:00Z,28.4073,-96.7122,0.0,3.0,91.0,4.0,'11111222,11111222,11111222' 
TCOON,ioos:station:TCOON:031:1,2008-03-06T07:00:00Z,28.4073,-96.7122,0.0,3.6,94.0,4.4,'11111222,11111222,11111222' 
TCOON,ioos:station:TCOON:031:1,2008-03-06T08:00:00Z,28.4073,-96.7122,0.0,3.2,99.0,4.5,'11111222,11111222,11111222' 
TCOON,ioos:station:TCOON:031:1,2008-03-06T09:00:00Z,28.4073,-96.7122,0.0,2.5,83.0,3.3,'11111222,11111222,11111222' 
TCOON,ioos:station:TCOON:031:1,2008-03-06T10:00:00Z,28.4073,-96.7122,0.0,2.8,82.0,3.9,'11111222,11111222,11111222' 
TCOON,ioos:station:TCOON:031:1,2008-03-06T11:00:00Z,28.4073,-96.7122,0.0,2.8,82.0,4.2,'11111222,11111222,11111222' 
TCOON,ioos:station:TCOON:031:1,2008-03-06T12:00:00Z,28.4073,-96.7122,0.0,2.6,51.0,3.6,'11111222,11111222,11111222' 
TCOON,ioos:station:TCOON:031:1,2008-03-06T13:00:00Z,28.4073,-96.7122,0.0,3.4,61.0,4.6,'11111222,11111222,11111222' 
TCOON,ioos:station:TCOON:031:1,2008-03-06T14:00:00Z,28.4073,-96.7122,0.0,4.7,90.0,6.1,'11111222,11111222,11111222' 
TCOON,ioos:station:TCOON:031:1,2008-03-06T15:00:00Z,28.4073,-96.7122,0.0,5.7,94.0,8.7,'11111222,11111222,11111222' 
TCOON,ioos:station:TCOON:031:1,2008-03-06T16:00:00Z,28.4073,-96.7122,0.0,6.2,97.0,7.6,'11111222,11111222,11111222' 
TCOON,ioos:station:TCOON:031:1,2008-03-06T17:00:00Z,28.4073,-96.7122,0.0,7.7,99.0,9.4,'11111222,11111222,11111222' 
TCOON,ioos:station:TCOON:031:1,2008-03-06T18:00:00Z,28.4073,-96.7122,0.0,5.8,98.0,10.1,'11111222,11111222,11111222' 
TCOON,ioos:station:TCOON:031:1,2008-03-06T19:00:00Z,28.4073,-96.7122,0.0,7.4,103.0,12.1,'11111222,11111222,11111222' 
TCOON,ioos:station:TCOON:031:1,2008-03-06T20:00:00Z,28.4073,-96.7122,0.0,9.2,111.0,11.6,'11111222,11111222,11111222' 
TCOON,ioos:station:TCOON:031:1,2008-03-06T21:00:00Z,28.4073,-96.7122,0.0,7.2,107.0,10.2,'11111222,11111222,11111222' 
TCOON,ioos:station:TCOON:031:1,2008-03-06T22:00:00Z,28.4073,-96.7122,0.0,5.7,304.0,8.4,'11111222,11111222,11111222' 
TCOON,ioos:station:TCOON:031:1,2008-03-06T23:00:00Z,28.4073,-96.7122,0.0,11.4,332.0,15.4,'11111222,11111222,11111222' 
TCOON,ioos:station:TCOON:031:1,2008-03-07T00:00:00Z,28.4073,-96.7122,0.0,10.7,328.0,15.1,'11111222,11111222,11111222' 
TCOON,ioos:station:TCOON:031:1,2008-03-07T01:00:00Z,28.4073,-96.7122,0.0,10.1,335.0,13.7,'11111222,11111222,11111222' 
TCOON,ioos:station:TCOON:031:1,2008-03-07T02:00:00Z,28.4073,-96.7122,0.0,6.8,338.0,12.1,'11111222,11111222,11111222' 
TCOON,ioos:station:TCOON:031:1,2008-03-07T03:00:00Z,28.4073,-96.7122,0.0,8.3,351.0,11.8,'11111222,11111222,11111222' 
TCOON,ioos:station:TCOON:031:1,2008-03-07T04:00:00Z,28.4073,-96.7122,0.0,8.0,342.0,11.0,'11111222,11111222,11111222' 
TCOON,ioos:station:TCOON:031:1,2008-03-07T05:00:00Z,28.4073,-96.7122,0.0,6.4,313.0,10.8,'11111222,11111222,11111222' 
TCOON,ioos:station:TCOON:031:1,2008-03-07T06:00:00Z,28.4073,-96.7122,0.0,7.5,309.0,10.0,'11111222,11111222,11111222' 
TCOON,ioos:station:TCOON:031:1,2008-03-07T07:00:00Z,28.4073,-96.7122,0.0,8.5,312.0,11.7,'11111222,11111222,11111222' 
TCOON,ioos:station:TCOON:031:1,2008-03-07T08:00:00Z,28.4073,-96.7122,0.0,8.7,313.0,11.9,'11111222,11111222,11111222' 
TCOON,ioos:station:TCOON:031:1,2008-03-07T09:00:00Z,28.4073,-96.7122,0.0,5.6,324.0,9.6,'11111222,11111222,11111222' 
TCOON,ioos:station:TCOON:031:1,2008-03-07T10:00:00Z,28.4073,-96.7122,0.0,8.4,305.0,11.9,'11111222,11111222,11111222' 
TCOON,ioos:station:TCOON:031:1,2008-03-07T11:00:00Z,28.4073,-96.7122,0.0,6.3,305.0,10.6,'11111222,11111222,11111222' 
TCOON,ioos:station:TCOON:031:1,2008-03-07T12:00:00Z,28.4073,-96.7122,0.0,7.5,303.0,11.9,'11111222,11111222,11111222' 
TCOON,ioos:station:TCOON:031:1,2008-03-07T13:00:00Z,28.4073,-96.7122,0.0,7.5,306.0,8.8,'11111222,11111222,11111222' 
TCOON,ioos:station:TCOON:031:1,2008-03-07T14:00:00Z,28.4073,-96.7122,0.0,6.8,311.0,9.8,'11111222,11111222,11111222' 
TCOON,ioos:station:TCOON:031:1,2008-03-07T15:00:00Z,28.4073,-96.7122,0.0,7.6,326.0,13.6,'11111222,11111222,11111222' 
TCOON,ioos:station:TCOON:031:1,2008-03-07T16:00:00Z,28.4073,-96.7122,0.0,9.2,323.0,11.9,'11111222,11111222,11111222' 
TCOON,ioos:station:TCOON:031:1,2008-03-07T17:00:00Z,28.4073,-96.7122,0.0,8.4,317.0,12.3,'11111222,11111222,11111222' 
TCOON,ioos:station:TCOON:031:1,2008-03-07T18:00:00Z,28.4073,-96.7122,0.0,7.8,313.0,13.5,'11111222,11111222,11111222' 
TCOON,ioos:station:TCOON:031:1,2008-03-07T19:00:00Z,28.4073,-96.7122,0.0,7.6,334.0,13.4,'11111222,11111222,11111222' 
TCOON,ioos:station:TCOON:031:1,2008-03-07T20:00:00Z,28.4073,-96.7122,0.0,9.3,325.0,13.0,'11111222,11111222,11111222' 
TCOON,ioos:station:TCOON:031:1,2008-03-07T21:00:00Z,28.4073,-96.7122,0.0,9.1,336.0,14.9,'11111222,11111222,11111222' 
TCOON,ioos:station:TCOON:031:1,2008-03-07T22:00:00Z,28.4073,-96.7122,0.0,7.8,344.0,10.6,'11111222,11111222,11111222' 
TCOON,ioos:station:TCOON:031:1,2008-03-07T23:00:00Z,28.4073,-96.7122,0.0,6.7,323.0,9.5,'11111222,11111222,11111222' 
TCOON,ioos:station:TCOON:031:1,2008-03-08T00:00:00Z,28.4073,-96.7122,0.0,2.5,356.0,5.7,'11111222,11111222,11111222' 
TCOON,ioos:station:TCOON:031:1,2008-03-08T01:00:00Z,28.4073,-96.7122,0.0,0.0,6.0,99.0,'11111222,11111222,11144222' 
TCOON,ioos:station:TCOON:031:1,2008-03-08T02:00:00Z,28.4073,-96.7122,0.0,0.0,77.0,99.0,'11111222,11111222,11144222' 
TCOON,ioos:station:TCOON:031:1,2008-03-08T03:00:00Z,28.4073,-96.7122,0.0,0.7,103.0,2.0,'11111222,11111222,11111222' 
TCOON,ioos:station:TCOON:031:1,2008-03-08T04:00:00Z,28.4073,-96.7122,0.0,0.0,118.0,99.0,'11111222,11111222,11144222' 
TCOON,ioos:station:TCOON:031:1,2008-03-08T05:00:00Z,28.4073,-96.7122,0.0,1.1,123.0,1.6,'11111222,11111222,11111222' 
TCOON,ioos:station:TCOON:031:1,2008-03-08T06:00:00Z,28.4073,-96.7122,0.0,0.5,141.0,99.0,'11111222,11111222,11144222' 
TCOON,ioos:station:TCOON:031:1,2008-03-08T07:00:00Z,28.4073,-96.7122,0.0,3.9,190.0,4.4,'11111222,11111222,11111222' 
TCOON,ioos:station:TCOON:031:1,2008-03-08T08:00:00Z,28.4073,-96.7122,0.0,5.4,223.0,6.5,'11111222,11111222,11111222' 
TCOON,ioos:station:TCOON:031:1,2008-03-08T09:00:00Z,28.4073,-96.7122,0.0,4.9,242.0,5.5,'11111222,11111222,11111222' 
TCOON,ioos:station:TCOON:031:1,2008-03-08T10:00:00Z,28.4073,-96.7122,0.0,5.8,239.0,6.8,'11111222,11111222,11111222' 
TCOON,ioos:station:TCOON:031:1,2008-03-08T11:00:00Z,28.4073,-96.7122,0.0,2.4,298.0,3.4,'11111222,11111222,11111222' 
TCOON,ioos:station:TCOON:031:1,2008-03-08T12:00:00Z,28.4073,-96.7122,0.0,3.8,339.0,5.6,'11111222,11111222,11111222' 
TCOON,ioos:station:TCOON:031:1,2008-03-08T13:00:00Z,28.4073,-96.7122,0.0,3.3,342.0,6.4,'11111222,11111222,11111222' 
TCOON,ioos:station:TCOON:031:1,2008-03-08T14:00:00Z,28.4073,-96.7122,0.0,3.8,2.0,6.0,'11111222,11111222,11111222' 
TCOON,ioos:station:TCOON:031:1,2008-03-08T15:00:00Z,28.4073,-96.7122,0.0,4.9,23.0,5.9,'11111222,11111222,11111222' 
TCOON,ioos:station:TCOON:031:1,2008-03-08T16:00:00Z,28.4073,-96.7122,0.0,5.2,9.0,6.0,'11111222,11111222,11111222' 
TCOON,ioos:station:TCOON:031:1,2008-03-08T17:00:00Z,28.4073,-96.7122,0.0,3.9,57.0,7.3,'11111222,11111222,11111222' 
TCOON,ioos:station:TCOON:031:1,2008-03-08T18:00:00Z,28.4073,-96.7122,0.0,5.0,121.0,7.2,'11111222,11111222,11111222' 
TCOON,ioos:station:TCOON:031:1,2008-03-08T19:00:00Z,28.4073,-96.7122,0.0,0.0,102.0,2.0,'11111222,11111222,11111222' 
TCOON,ioos:station:TCOON:031:1,2008-03-08T20:00:00Z,28.4073,-96.7122,0.0,2.8,128.0,4.2,'11111222,11111222,11111222' 
TCOON,ioos:station:TCOON:031:1,2008-03-08T21:00:00Z,28.4073,-96.7122,0.0,1.3,137.0,4.2,'11111222,11111222,11111222' 
TCOON,ioos:station:TCOON:031:1,2008-03-08T22:00:00Z,28.4073,-96.7122,0.0,4.3,119.0,5.8,'11111222,11111222,11111222' 
TCOON,ioos:station:TCOON:031:1,2008-03-08T23:00:00Z,28.4073,-96.7122,0.0,4.8,118.0,6.0,'11111222,11111222,11111222' 
TCOON,ioos:station:TCOON:031:1,2008-03-09T00:00:00Z,28.4073,-96.7122,0.0,5.5,101.0,7.0,'11111222,11111222,11111222' 
TCOON,ioos:station:TCOON:031:1,2008-03-09T01:00:00Z,28.4073,-96.7122,0.0,3.1,83.0,4.0,'11111222,11111222,11111222' 
TCOON,ioos:station:TCOON:031:1,2008-03-09T02:00:00Z,28.4073,-96.7122,0.0,2.1,90.0,3.4,'11111222,11111222,11111222' 
TCOON,ioos:station:TCOON:031:1,2008-03-09T03:00:00Z,28.4073,-96.7122,0.0,1.4,88.0,2.4,'11111222,11111222,11111222' 
TCOON,ioos:station:TCOON:031:1,2008-03-09T04:00:00Z,28.4073,-96.7122,0.0,5.1,126.0,6.4,'11111222,11111222,11111222' 
TCOON,ioos:station:TCOON:031:1,2008-03-09T06:00:00Z,28.4073,-96.7122,0.0,5.1,131.0,6.4,'11111222,11111222,11111222' 
TCOON,ioos:station:TCOON:031:1,2008-03-09T07:00:00Z,28.4073,-96.7122,0.0,6.1,139.0,7.6,'11111222,11111222,11111222' 
TCOON,ioos:station:TCOON:031:1,2008-03-09T08:00:00Z,28.4073,-96.7122,0.0,5.9,142.0,6.9,'11111222,11111222,11111222' 
TCOON,ioos:station:TCOON:031:1,2008-03-09T09:00:00Z,28.4073,-96.7122,0.0,5.8,144.0,7.2,'11111222,11111222,11111222' 
TCOON,ioos:station:TCOON:031:1,2008-03-09T10:00:00Z,28.4073,-96.7122,0.0,5.0,137.0,5.9,'11111222,11111222,11111222' 
TCOON,ioos:station:TCOON:031:1,2008-03-09T11:00:00Z,28.4073,-96.7122,0.0,4.8,132.0,5.6,'11111222,11111222,11111222' 
TCOON,ioos:station:TCOON:031:1,2008-03-09T12:00:00Z,28.4073,-96.7122,0.0,5.4,126.0,6.3,'11111222,11111222,11111222' 
TCOON,ioos:station:TCOON:031:1,2008-03-09T13:00:00Z,28.4073,-96.7122,0.0,3.9,119.0,4.4,'11111222,11111222,11111222' 
TCOON,ioos:station:TCOON:031:1,2008-03-09T14:00:00Z,28.4073,-96.7122,0.0,4.4,130.0,5.7,'11111222,11111222,11111222' 